Location: 10033 Water Well
(34.0865°N, 106.8959°W)
Time: 21:44:09
(UTC+00:00)

Cosmos 371 Rocket - Pass Details

Date: 13 January 2026
Orbit: 675 x 688 km, 74.0° (Epoch: 10 February)

Event Time Altitude Azimuth Distance (km) Brightness Sun altitude
Rises 00:45:16 0° 346° (NNW) 3,038 6.5 -5.9°
Reaches altitude 10° 00:47:36 10° 349° (N) 2,118 5.7 -6.3°
Maximum altitude 00:52:20 65° 72° (ENE) 743 3.2 -7.2°
Drops below altitude 10° 00:57:01 10° 154° (SSE) 2,101 5.7 -8.1°
Sets 00:59:19 0° 157° (SSE) 3,011 6.6 -8.6°
